Buckeye, AZ

12:32 PM MST on July 19, 2019 (GMT -0700)
Buckeye Municipal

Weather History for KBXK - May, 2019

Change the Weather History Date:

Wednesday, May 8, 2019

  Actual Average (KGYR) Record (KGYR)
Temperature  
Mean Temperature 72 °F -  
Max Temperature 86 °F 90 °F 104 °F (1999)
Min Temperature 59 °F 61 °F 55 °F (2005)
Cooling Degree Days 8    
Growing Degree Days 22 (Base 50)    
Moisture  
Dew Point 43 °F    
Average Humidity 36    
Maximum Humidity 59    
Minimum Humidity 19    
Precipitation  
Precipitation 0.00 in - - ()
Sea Level Pressure  
Sea Level Pressure 29.83 in    
Wind  
Wind Speed 7 mph (South)    
Max Wind Speed 22 mph    
Max Gust Speed 29 mph    
Visibility 10 miles    
Events      
Averages and records for this station are not official NWS values.
T = Trace of Precipitation, MM = Missing Value Source: NWS Daily Summary

Daily Weather History Graph

Daily Weather History Graph

Search for Another Location

Airport or City:

Astronomy

May. 08, 2019 Rise Set
Actual Time 5:36 AM MST 7:18 PM MST
Civil Twilight 5:09 AM MST 7:45 PM MST
Nautical Twilight 4:36 AM MST 8:18 PM MST
Astronomical Twilight 4:02 AM MST 8:52 PM MST
Moon 8:41 AM MST (5/8) 11:17 PM MST (5/8)
Length of Visible Light 14h 36m
Length of Day
13h 42m
Waxing Crescent, 16% of the Moon is Illuminated
May 8
Waxing Crescent
May 11
First Quarter
May 18
Full
May 26
Last Quarter
Jun 3
New

Hourly Weather History & Observations

Time (MST) Temp. Dew Point Humidity Pressure Visibility Wind Dir Wind Speed Gust Speed Precip Events Conditions
12:15 AM 66.2 °F 42.8 °F 43% 29.89 in 10.0 mi SE 3.5 mph - N/A   Clear
12:35 AM 64.4 °F 41.0 °F 42% 29.89 in 10.0 mi ENE 3.5 mph - N/A   Clear
12:55 AM 62.6 °F 41.0 °F 45% 29.89 in 10.0 mi NNE 4.6 mph - N/A   Clear
1:15 AM 64.4 °F 41.0 °F 42% 29.88 in 10.0 mi ESE 3.5 mph - N/A   Clear
1:35 AM 64.4 °F 41.0 °F 42% 29.88 in 10.0 mi Calm Calm - N/A   Clear
1:55 AM 64.4 °F 41.0 °F 42% 29.88 in 10.0 mi NE 3.5 mph - N/A   Clear
2:15 AM 62.6 °F 41.0 °F 45% 29.89 in 10.0 mi North 4.6 mph - N/A   Partly Cloudy
2:35 AM 62.6 °F 41.0 °F 45% 29.89 in 10.0 mi Calm Calm - N/A   Mostly Cloudy
2:55 AM 64.4 °F 41.0 °F 42% 29.89 in 10.0 mi Calm Calm - N/A   Mostly Cloudy
3:15 AM 62.6 °F 41.0 °F 45% 29.89 in 10.0 mi Calm Calm - N/A   Partly Cloudy
3:35 AM 64.4 °F 41.0 °F 42% 29.88 in 10.0 mi SSW 4.6 mph - N/A   Clear
3:55 AM 59.0 °F 44.6 °F 59% 29.88 in 10.0 mi South 6.9 mph - N/A   Partly Cloudy
4:15 AM 62.6 °F 46.4 °F 55% 29.88 in 10.0 mi SSW 5.8 mph - N/A   Partly Cloudy
4:35 AM 60.8 °F 44.6 °F 55% 29.89 in 7.0 mi SSW 3.5 mph - N/A   Clear
4:55 AM 60.8 °F 42.8 °F 52% 29.90 in 10.0 mi North 3.5 mph - N/A   Scattered Clouds
5:15 AM 62.6 °F 41.0 °F 45% 29.90 in 10.0 mi North 6.9 mph - N/A   Overcast
5:35 AM 62.6 °F 41.0 °F 45% 29.91 in 10.0 mi North 5.8 mph - N/A   Overcast
5:55 AM 62.6 °F 41.0 °F 45% 29.91 in 10.0 mi NNE 4.6 mph - N/A   Mostly Cloudy
6:15 AM 64.4 °F 42.8 °F 45% 29.91 in 10.0 mi Calm Calm - N/A   Mostly Cloudy
6:35 AM 64.4 °F 42.8 °F 45% 29.92 in 10.0 mi Calm Calm - N/A   Mostly Cloudy
6:55 AM 64.4 °F 46.4 °F 52% 29.91 in 4.0 mi SSE 4.6 mph - N/A   Scattered Clouds
7:15 AM 66.2 °F 44.6 °F 46% 29.92 in 9.0 mi Calm Calm - N/A   Partly Cloudy
7:35 AM 64.4 °F 50.0 °F 59% 29.87 in 7.0 mi ESE 8.1 mph - N/A   Mostly Cloudy
7:55 AM 66.2 °F 48.2 °F 52% 29.89 in 10.0 mi ESE 6.9 mph - N/A   Partly Cloudy
8:15 AM 66.2 °F 46.4 °F 49% 29.89 in 10.0 mi SSE 8.1 mph - N/A   Clear
8:35 AM 68.0 °F 46.4 °F 46% 29.89 in 10.0 mi SSE 6.9 mph - N/A   Clear
8:55 AM 71.6 °F 46.4 °F 41% 29.89 in 10.0 mi South 6.9 mph - N/A   Clear
9:15 AM 73.4 °F 44.6 °F 36% 29.89 in 10.0 mi SSW 8.1 mph - N/A   Clear
9:35 AM 73.4 °F 44.6 °F 36% 29.89 in 10.0 mi SSW 5.8 mph - N/A   Clear
9:55 AM 75.2 °F 44.6 °F 34% 29.89 in 10.0 mi South 6.9 mph - N/A   Clear
10:15 AM 75.2 °F 42.8 °F 31% 29.89 in 10.0 mi West 5.8 mph - N/A   Clear
10:35 AM 77.0 °F 41.0 °F 28% 29.88 in 10.0 mi SSW 3.5 mph - N/A   Clear
10:55 AM 78.8 °F 41.0 °F 26% 29.88 in 10.0 mi SSW 8.1 mph - N/A   Clear
11:15 AM 78.8 °F 41.0 °F 26% 29.87 in 10.0 mi WSW 5.8 mph - N/A   Clear
11:35 AM 80.6 °F 41.0 °F 24% 29.86 in 10.0 mi SSW 8.1 mph - N/A   Clear
11:55 AM 80.6 °F 42.8 °F 26% 29.85 in 10.0 mi SSW 8.1 mph - N/A   Clear
12:15 PM 80.6 °F 41.0 °F 24% 29.84 in 10.0 mi WSW 5.8 mph - N/A   Clear
12:35 PM 82.4 °F 42.8 °F 25% 29.83 in 10.0 mi SW 9.2 mph 16.1 mph N/A   Clear
12:55 PM 82.4 °F 41.0 °F 23% 29.82 in 10.0 mi WSW 15.0 mph 18.4 mph N/A   Clear
1:15 PM 82.4 °F 41.0 °F 23% 29.81 in 10.0 mi SW 13.8 mph 21.9 mph N/A   Clear
1:35 PM 84.2 °F 41.0 °F 22% 29.80 in 10.0 mi WSW 13.8 mph 19.6 mph N/A   Clear
1:55 PM 84.2 °F 41.0 °F 22% 29.80 in 10.0 mi WSW 15.0 mph 19.6 mph N/A   Clear
2:15 PM 84.2 °F 41.0 °F 22% 29.79 in 10.0 mi WSW 11.5 mph 21.9 mph N/A   Clear
2:35 PM 84.2 °F 41.0 °F 22% 29.78 in 10.0 mi WSW 10.4 mph 16.1 mph N/A   Clear
2:55 PM 86.0 °F 41.0 °F 20% 29.77 in 10.0 mi WSW 10.4 mph 21.9 mph N/A   Clear
3:15 PM 86.0 °F 41.0 °F 20% 29.76 in 10.0 mi SW 13.8 mph 19.6 mph N/A   Clear
3:35 PM 86.0 °F 41.0 °F 20% 29.75 in 10.0 mi SW 10.4 mph 17.3 mph N/A   Clear
3:55 PM 86.0 °F 41.0 °F 20% 29.74 in 10.0 mi SW 10.4 mph 20.7 mph N/A   Clear
4:15 PM 86.0 °F 41.0 °F 20% 29.73 in 10.0 mi SW 13.8 mph 19.6 mph N/A   Clear
4:35 PM 86.0 °F 39.2 °F 19% 29.73 in 10.0 mi SW 9.2 mph 20.7 mph N/A   Clear
4:55 PM 84.2 °F 39.2 °F 20% 29.72 in 10.0 mi SSW 11.5 mph - N/A   Clear
5:15 PM 84.2 °F 39.2 °F 20% 29.72 in 10.0 mi SW 12.7 mph 19.6 mph N/A   Scattered Clouds
5:35 PM 84.2 °F 41.0 °F 22% 29.72 in 10.0 mi SW 9.2 mph - N/A   Scattered Clouds
5:55 PM 84.2 °F 41.0 °F 22% 29.72 in 10.0 mi South 10.4 mph - N/A   Partly Cloudy
6:15 PM 86.0 °F 41.0 °F 20% 29.72 in 10.0 mi SW 12.7 mph 17.3 mph N/A   Scattered Clouds
6:35 PM 84.2 °F 41.0 °F 22% 29.72 in 10.0 mi SW 12.7 mph - N/A   Partly Cloudy
6:55 PM 84.2 °F 41.0 °F 22% 29.72 in 10.0 mi SW 10.4 mph 16.1 mph N/A   Mostly Cloudy
7:15 PM 82.4 °F 44.6 °F 26% 29.74 in 10.0 mi ESE 11.5 mph 18.4 mph N/A   Overcast
7:35 PM 77.0 °F 46.4 °F 34% 29.75 in 10.0 mi East 21.9 mph - N/A   Overcast
7:55 PM 75.2 °F 48.2 °F 38% 29.75 in 10.0 mi East 17.3 mph 28.8 mph N/A   Mostly Cloudy
8:15 PM 75.2 °F 48.2 °F 38% 29.76 in 10.0 mi East 17.3 mph 20.7 mph N/A   Partly Cloudy
8:35 PM 73.4 °F 50.0 °F 44% 29.77 in 10.0 mi East 13.8 mph 19.6 mph N/A   Clear
8:55 PM 73.4 °F 50.0 °F 44% 29.77 in 10.0 mi East 15.0 mph - N/A   Clear
9:15 PM 73.4 °F 48.2 °F 41% 29.78 in 10.0 mi East 15.0 mph - N/A   Clear
9:35 PM 73.4 °F 48.2 °F 41% 29.79 in 10.0 mi East 15.0 mph 20.7 mph N/A   Clear
9:55 PM 73.4 °F 46.4 °F 38% 29.79 in 10.0 mi East 15.0 mph - N/A   Clear
10:15 PM 73.4 °F 46.4 °F 38% 29.79 in 10.0 mi East 18.4 mph 24.2 mph N/A   Clear
10:35 PM 73.4 °F 48.2 °F 41% 29.79 in 10.0 mi East 18.4 mph 25.3 mph N/A   Clear
10:55 PM 73.4 °F 48.2 °F 41% 29.80 in 10.0 mi East 20.7 mph 24.2 mph N/A   Clear
11:15 PM 71.6 °F 48.2 °F 43% 29.81 in 10.0 mi East 15.0 mph 21.9 mph N/A   Clear
11:35 PM 69.8 °F 48.2 °F 46% 29.81 in 10.0 mi East 15.0 mph - N/A   Clear
11:55 PM 69.8 °F 48.2 °F 46% 29.81 in 10.0 mi East 12.7 mph - N/A   Clear